GFSSGP_prec_cloud_210.txt.gz
Cloud_Cover
0 0 0 0 0 0 0 0 0 0 3 1 2 2 96 99 100 100 100 100 100 100 94 100 100 100 100 100 19 8 100 100 100 100 100 100 100 100 100 92 94 100 100 100 100 8 18 98 93
0 0 0 0 0 0 0 0 0 0 0 0 0 0 15 100 65 100 100 100 100 99 7 100 100 100 100 100 80 5 5 90 46 96 99 100 86 100 100 50 100 95 56 77 99 86 64 100 5
0 0 0 0 0 0 0 0 0 0 0 0 0 0 2 6 87 89 100 100 100 52 10 13 100 100 100 89 78 8 39 81 48 6 77 100 94 100 16 76 100 100 57 24 97 100 69 69 5
0 0 0 0 0 0 0 0 0 0 0 0 0 0 0 0 5 5 6 100 100 100 69 5 96 33 100 100 97 8 6 97 89 81 68 6 5 98 5 10 60 100 100 100 18 100 98 25 5
0 0 0 0 0 0 0 0 0 0 0 0 0 0 0 0 0 0 2 84 100 100 100 100 36 56 73 100 100 15 5 82 75 99 98 44 11 51 15 5 57 70 100 98 5 78 81 22 6
0 0 0 0 0 0 0 0 0 0 0 0 0 0 0 0 0 4 0 0 4 82 44 100 53 10 23 100 100 99 5 6 28 91 51 36 50 43 87 5 6 98 100 55 7 27 4 50 1
0 0 0 0 0 0 0 0 0 0 0 0 0 0 0 0 0 0 0 0 0 11 57 40 100 18 14 100 100 100 98 5 40 60 100 33 5 5 5 20 12 28 92 14 8 5 3 1 2
0 0 0 0 0 0 0 0 0 0 0 0 0 0 0 0 1 18 20 26 16 20 17 23 100 61 99 100 60 99 100 96 5 4 99 86 68 10 5 5 5 5 5 5 5 5 5 0 0
0 0 0 0 0 0 0 0 0 0 0 0 0 0 0 0 0 2 26 84 74 54 39 15 70 100 100 82 19 15 48 100 82 5 4 5 66 31 32 34 5 5 5 88 32 5 5 4 0
0 0 0 0 0 0 0 0 0 0 0 0 0 0 0 0 0 0 0 23 95 100 95 87 81 100 73 100 38 57 57 20 100 96 21 19 55 23 5 5 5 5 5 5 67 61 11 51 24
0 0 0 0 0 0 0 0 0 0 0 0 0 0 0 0 0 0 0 0 2 2 76 98 100 89 30 95 88 57 38 33 61 96 100 61 34 97 6 17 9 26 5 4 5 5 4 1 13
0 0 0 0 0 0 0 0 0 0 0 0 0 0 0 0 0 0 0 0 0 1 1 42 100 100 100 100 94 30 100 100 100 61 74 100 98 58 6 6 18 8 5 5 5 5 5 11 5
0 0 0 0 0 0 0 0 0 0 0 0 0 0 0 0 0 0 0 0 0 0 0 55 100 97 95 85 30 17 91 99 100 94 92 37 26 16 95 83 94 50 10 5 1 2 5 4 5
0 0 0 0 0 0 0 0 0 0 0 0 0 0 0 0 0 0 0 0 0 0 0 26 89 94 90 71 18 2 37 100 99 98 100 22 90 76 63 100 49 7 29 5 30 5 5 5 36
0 0 0 0 0 0 0 0 0 0 0 0 0 0 0 0 0 0 0 0 0 0 0 19 28 32 40 61 76 54 84 100 57 100 100 94 18 84 100 100 100 78 6 5 9 6 5 5 82
0 0 0 0 0 0 0 0 0 0 0 0 0 0 0 0 0 0 0 0 0 0 0 0 0 4 8 15 48 57 42 98 32 96 87 17 52 17 42 66 97 100 100 82 58 5 5 17 100
0 0 0 0 0 0 0 0 0 0 0 0 0 0 0 0 0 0 0 0 0 0 0 0 0 1 1 6 32 28 12 19 100 90 76 54 30 58 5 5 40 83 100 100 100 29 5 65 100
0 0 0 0 0 0 0 0 0 0 0 0 0 0 0 0 0 0 0 0 0 0 0 0 0 0 0 14 19 28 22 15 67 19 17 12 29 22 91 4 3 5 19 62 98 96 62 88 100
0 0 0 0 0 0 0 0 0 0 0 0 0 0 0 0 0 0 0 0 0 0 0 0 7 2 12 7 15 23 28 13 14 0 0 0 2 28 0 51 16 5 27 32 5 72 100 100 100
5 0 0 0 0 0 0 0 0 0 0 0 0 0 0 0 0 0 0 0 0 0 0 0 0 9 16 2 7 1 3 11 1 0 0 0 0 0 0 43 100 100 10 3 5 5 67 100 100
1 5 0 0 0 0 0 0 0 0 0 0 0 0 0 0 0 0 0 0 0 0 0 0 0 0 14 24 23 21 7 8 27 28 22 0 0 0 0 0 48 100 98 21 5 2 29 79 100
0 0 0 0 0 0 0 0 0 0 0 0 0 0 0 0 0 0 0 0 0 0 0 0 0 0 0 0 6 28 22 4 9 0 0 1 0 0 0 0 2 81 90 100 70 98 100 19 100
0 0 0 0 0 0 0 0 0 0 0 0 0 0 0 0 0 0 0 0 0 0 0 0 0 0 0 0 0 0 0 0 0 0 0 0 12 0 0 0 0 7 100 89 100 89 100 34 99
5 0 0 0 0 0 0 0 0 0 0 0 0 0 0 0 0 0 0 0 0 0 0 0 0 0 0 0 0 0 0 0 1 3 19 20 22 25 5 0 0 0 84 100 100 100 90 59 66
5 0 0 0 0 0 0 0 0 0 0 0 0 0 0 0 0 0 0 0 0 0 0 0 0 0 0 0 0 0 0 0 0 0 5 8 22 61 53 16 33 20 1 31 100 100 69 61 85
5 3 3 0 0 0 0 0 0 0 0 0 0 0 0 0 0 0 0 0 0 0 0 0 0 2 4 5 0 0 0 0 0 0 2 2 3 0 0 15 30 21 1 0 97 100 74 100 100
3 0 0 0 0 0 0 0 0 0 0 0 0 0 0 0 0 0 0 0 0 0 0 0 0 0 0 0 0 0 0 0 0 0 0 0 1 0 0 0 46 55 36 16 28 55 100 100 100
0 0 0 0 0 0 0 0 0 0 12 2 0 0 0 0 0 0 0 0 0 0 0 0 0 0 0 0 0 0 0 0 0 0 0 1 0 0 0 12 25 48 69 49 22 5 100 100 100
17 1 0 1 3 0 0 1 0 0 0 2 0 0 0 0 0 0 0 0 0 0 0 0 0 0 0 0 0 0 0 0 0 0 0 0 2 4 23 9 29 33 64 51 64 61 100 100 100
100 98 16 2 0 0 0 14 0 0 0 5 0 0 0 0 0 2 0 0 0 0 0 0 0 0 0 0 0 0 0 0 0 0 0 0 0 0 5 9 49 8 24 10 40 100 100 100 100

GFSSGP_prec_cloud_216.txt.gz
Cloud_Cover
0 0 0 0 0 0 0 0 0 0 0 0 0 0 29 28 84 51 5 100 100 84 11 100 83 93 42 100 100 100 100 3 5 5 5 12 71 89 100 98 100 96 15 5 9 6 6 32 76
0 0 0 0 0 0 0 0 0 0 0 0 0 0 0 9 22 81 5 47 100 97 40 5 24 96 73 100 100 96 100 34 5 5 5 5 13 33 16 5 62 5 44 5 26 17 65 100 100
0 0 0 0 0 0 0 0 0 0 0 0 0 0 0 0 5 34 46 15 100 100 81 5 53 6 95 72 95 100 39 94 5 5 5 5 8 20 5 3 5 5 5 19 5 21 96 97 98
0 0 0 0 0 0 0 0 0 0 0 0 0 0 0 0 0 2 5 97 13 84 100 99 31 14 88 98 10 100 100 25 5 5 5 10 95 100 14 25 5 4 6 99 6 5 100 100 91
0 0 0 0 0 0 0 0 0 0 0 0 0 0 0 0 0 1 0 3 100 17 39 76 80 7 11 82 100 21 98 100 55 5 28 39 10 22 60 4 5 5 5 6 6 5 13 48 49
0 0 0 0 0 0 0 0 0 0 0 0 0 0 0 0 8 0 0 0 6 100 9 4 48 100 72 5 95 47 5 66 100 75 6 5 5 5 5 5 4 9 42 5 5 5 5 5 5
0 0 0 0 0 0 0 0 0 0 0 0 0 0 0 0 0 0 0 0 0 21 100 88 13 58 100 98 7 61 5 5 5 44 80 5 20 19 54 6 4 5 5 5 5 5 5 10 13
0 0 0 0 0 0 0 0 0 0 0 0 0 0 0 0 0 0 0 0 0 0 3 66 20 100 100 100 100 57 29 9 32 6 5 6 11 98 100 99 46 5 5 5 5 5 22 19 5
0 0 0 0 0 0 0 0 0 0 0 0 0 0 0 0 0 0 0 0 0 0 0 0 4 5 100 59 99 55 11 5 6 32 65 19 19 95 84 97 100 25 5 5 5 5 5 6 5
0 0 0 0 0 0 0 0 0 0 0 0 0 0 0 0 0 0 0 0 0 0 0 0 0 2 5 5 5 90 11 5 5 5 5 72 30 28 54 18 74 97 8 5 5 5 5 6 20
0 0 0 0 0 0 0 0 0 0 0 0 0 0 0 0 0 0 0 0 0 0 0 0 0 0 0 1 5 9 9 7 5 10 6 5 20 89 12 50 46 9 5 5 5 5 5 5 98
0 0 0 0 0 0 0 0 0 0 0 0 0 0 0 0 0 0 0 0 0 0 0 0 0 0 0 1 0 17 16 21 5 5 5 52 38 6 46 93 100 100 100 56 5 5 5 5 28
0 0 0 0 0 0 0 0 0 0 0 0 0 0 0 0 0 0 0 0 0 0 0 0 0 0 0 10 2 4 22 18 33 6 4 5 44 74 11 2 6 95 100 100 100 95 93 39 12
0 0 0 0 0 0 0 0 0 0 0 0 0 0 0 0 0 0 0 0 0 0 0 0 0 0 0 1 1 13 37 50 21 34 4 9 5 18 48 6 4 5 89 99 78 100 100 100 89
0 0 0 0 0 0 0 0 0 0 0 0 0 0 0 0 0 0 0 0 0 0 0 0 0 0 0 0 1 14 67 66 68 8 18 10 2 0 71 25 1 8 5 32 44 75 77 87 51
0 0 0 0 0 0 0 0 0 0 0 0 0 0 0 0 0 0 0 0 0 0 0 0 0 0 0 3 40 41 65 82 79 21 4 6 3 7 67 61 90 7 2 4 34 97 98 5 5
0 0 0 0 0 0 0 0 0 0 0 0 0 0 0 0 0 0 0 0 0 0 0 0 0 0 0 0 1 6 6 22 56 22 14 31 99 90 48 42 100 48 23 8 4 5 4 1 4
0 0 0 0 0 0 0 0 0 0 0 0 0 0 0 0 0 0 0 0 0 0 0 0 0 0 0 0 0 0 0 0 18 49 1 9 76 70 39 20 15 100 86 44 11 1 8 4 10
0 0 0 0 0 0 0 0 0 0 0 0 0 0 0 0 0 0 0 0 0 0 0 0 0 0 0 0 0 0 0 0 0 0 0 1 0 76 5 5 24 100 100 85 50 22 0 7 21
0 0 0 0 0 0 0 0 0 0 0 0 0 0 0 0 0 0 0 0 0 0 0 0 0 0 0 0 0 0 0 0 0 0 0 0 0 0 0 0 3 4 100 100 91 28 4 22 40
0 0 0 0 0 0 0 1 0 3 0 0 0 0 0 0 0 0 0 0 0 0 0 0 0 0 0 0 0 0 0 0 0 0 0 0 0 0 0 0 26 22 17 93 100 100 86 46 16
5 0 1 0 0 0 0 0 0 0 0 0 0 0 0 0 0 0 0 0 0 0 0 0 0 0 0 0 0 0 0 0 1 0 0 0 0 0 0 0 0 17 5 0 26 3 10 99 95
0 0 0 0 0 0 0 0 0 0 0 0 0 0 0 0 0 0 0 0 0 0 0 0 0 0 0 0 0 0 0 0 0 0 0 0 0 0 0 0 0 0 0 3 4 19 0 62 43
2 4 0 2 0 0 0 0 0 2 5 0 0 0 0 0 0 0 0 0 0 0 0 0 0 0 0 0 0 0 0 0 0 0 0 0 0 0 0 0 0 0 0 0 0 2 82 6 21
5 5 4 5 5 2 0 0 0 0 5 6 1 0 0 0 0 0 0 0 0 0 0 0 0 0 0 0 0 0 0 0 0 0 0 0 0 0 0 0 0 0 0 1 0 0 0 37 50
94 5 5 5 5 32 3 0 5 5 6 14 5 3 0 0 0 0 0 0 0 0 0 0 0 0 0 0 0 0 0 0 0 0 0 0 0 0 0 0 0 0 0 0 17 1 0 0 49
10 6 39 76 68 36 2 0 5 18 100 100 59 6 1 0 0 0 0 0 0 0 0 0 0 0 0 0 0 0 0 0 0 0 0 0 0 0 0 0 0 0 0 0 0 2 0 0 6
5 60 100 83 38 83 13 36 20 8 88 100 100 100 12 0 0 0 0 0 0 0 0 0 0 0 0 0 0 0 0 0 0 0 0 0 0 0 0 0 0 0 0 0 0 0 0 5 0
99 71 95 100 85 100 77 65 100 10 37 100 100 100 78 4 0 0 0 0 0 0 0 0 0 0 0 0 0 0 0 0 0 0 0 0 0 0 0 0 0 0 0 0 0 0 0 13 2
10 39 100 100 40 100 89 2 85 84 96 85 100 100 86 5 0 0 0 2 0 0 0 0 0 0 0 0 0 0 0 0 0 0 0 0 0 0 0 0 0 0 0 0 0 0 0 0 0

GFSSGP_prec_cloud_219.txt.gz
Cloud_Cover
0 0 0 0 0 0 1 12 0 1 4 2 4 15 62 100 43 100 100 28 100 90 25 38 94 79 100 98 98 100 100 100 97 1 5 5 4 12 99 100 97 100 83 7 5 30 27 98 88
0 0 0 0 0 0 0 0 0 0 0 0 0 5 29 81 97 73 100 28 62 100 61 13 51 100 100 100 51 72 100 100 100 5 5 5 5 50 97 26 98 100 15 5 9 38 9 76 100
0 0 0 0 0 0 0 0 0 0 0 0 1 4 69 3 64 99 95 8 0 90 100 90 21 86 84 100 100 100 100 88 100 11 5 0 0 1 13 33 41 38 79 5 5 43 31 43 100
0 0 0 0 0 0 0 0 0 0 0 0 44 3 0 0 93 34 100 100 12 1 95 100 100 100 100 74 100 100 63 100 100 100 12 0 0 0 0 3 5 5 48 5 25 7 69 26 81
0 0 0 0 0 0 0 0 0 0 0 0 0 79 0 26 26 0 0 27 61 20 3 93 100 83 74 26 16 100 100 94 100 100 100 61 6 5 0 0 0 5 5 5 45 6 18 10 36
0 0 0 0 0 0 0 0 0 0 0 2 0 0 0 9 63 16 12 4 31 76 41 6 100 100 99 69 5 90 31 22 98 99 100 100 75 25 5 5 5 22 17 26 5 11 5 5 45
0 0 0 0 0 0 0 0 0 0 0 1 5 2 0 23 19 5 4 4 0 6 57 96 84 62 10 100 27 12 89 100 70 8 100 100 100 88 12 5 5 5 21 5 5 5 12 74 43
0 0 0 0 0 0 0 0 0 0 0 0 0 2 0 0 0 0 0 0 0 0 0 1 48 97 66 5 66 100 24 5 94 11 7 14 98 100 61 5 5 5 5 5 5 5 12 40 85
0 0 0 0 0 0 0 0 0 0 0 0 0 0 0 0 0 0 0 0 0 0 0 0 0 0 65 5 12 3 17 87 5 4 6 5 5 42 100 90 11 5 5 4 5 5 28 28 35
0 0 0 0 0 0 0 0 0 0 0 0 0 0 0 0 0 0 0 0 4 45 80 56 0 1 0 3 50 6 3 8 5 5 4 5 6 28 81 60 100 100 38 5 5 5 12 54 6
0 0 0 0 0 0 0 0 0 0 0 0 0 0 0 0 0 0 0 0 5 39 68 84 41 3 0 0 4 28 4 38 84 70 38 5 2 5 45 20 80 52 74 44 5 5 10 6 62
0 0 0 0 0 0 0 0 0 0 0 0 0 0 0 0 0 0 0 0 0 0 3 49 40 0 0 0 0 0 99 74 47 8 4 66 10 5 7 79 100 100 90 93 69 28 5 23 70
0 0 0 0 0 0 0 0 0 0 0 0 0 0 0 0 0 0 0 0 0 0 0 0 2 0 1 0 0 0 93 58 87 100 39 0 2 12 22 86 100 100 100 100 100 86 5 46 88
0 0 0 0 0 0 0 0 0 0 0 0 0 0 0 0 0 0 0 0 0 0 0 0 0 0 0 0 0 0 1 96 7 100 100 0 4 24 52 53 50 100 100 100 85 43 8 5 5
0 0 0 0 0 0 0 0 0 0 0 0 0 0 0 0 0 0 0 0 0 0 0 0 0 0 0 0 0 0 0 4 54 36 100 100 26 4 97 100 87 94 100 93 75 95 48 5 14
0 0 0 0 0 0 0 0 0 0 0 0 0 0 0 0 0 0 0 0 0 0 0 0 0 0 0 0 0 0 4 86 49 100 24 100 54 7 46 69 93 100 67 6 13 7 19 7 5
0 0 0 0 0 0 0 0 0 0 0 0 0 0 0 0 0 0 0 0 0 0 0 0 0 0 0 0 0 0 8 43 46 20 81 100 77 19 31 12 3 46 74 80 83 100 86 98 21
0 0 0 0 0 0 0 0 0 0 0 0 0 0 0 0 0 0 0 0 0 0 0 0 0 0 0 0 0 0 0 0 0 2 97 0 48 14 12 9 81 91 68 78 85 95 100 100 57
0 0 0 0 0 0 0 0 0 0 0 0 0 0 0 0 0 0 0 0 0 0 0 0 0 0 0 0 0 3 0 2 3 24 64 0 84 0 0 10 5 10 76 49 100 100 100 91 100
0 0 0 0 0 0 0 0 0 0 0 0 0 0 0 0 0 0 0 0 0 0 0 0 0 0 0 0 0 3 3 19 6 4 0 0 0 0 11 1 0 4 5 5 90 60 100 100 99
0 0 0 0 0 0 0 0 0 0 0 0 0 0 0 0 0 0 0 0 0 0 0 0 0 0 0 0 0 0 0 0 4 2 1 0 0 0 0 0 0 10 0 0 0 16 96 100 100
3 1 0 0 0 0 0 0 0 1 0 0 0 0 0 0 0 0 0 0 0 0 0 0 0 0 0 0 0 0 0 2 32 6 71 52 0 0 0 0 0 0 0 7 0 0 3 100 100
0 0 0 3 5 0 1 0 5 4 0 0 0 2 0 0 0 0 0 0 0 0 0 0 0 0 0 0 0 0 0 4 2 5 5 0 0 0 0 0 0 0 0 0 0 10 2 0 38
4 4 5 5 5 0 2 4 0 2 4 0 0 0 0 0 0 0 0 0 0 0 0 0 0 0 0 0 0 0 0 0 4 6 0 0 0 0 0 0 0 0 0 0 0 0 0 0 1
5 25 14 27 100 3 83 81 3 49 5 4 4 0 0 0 0 0 0 0 0 0 0 0 0 0 0 0 0 0 0 0 0 0 0 0 0 0 0 0 0 0 0 0 0 0 0 0 0
33 100 100 100 100 100 100 48 15 67 15 9 42 3 4 5 1 3 0 2 0 0 0 0 0 0 0 0 0 0 0 0 0 0 0 0 0 0 0 0 0 0 0 0 0 0 0 0 0
80 89 92 100 92 100 24 55 100 100 27 89 78 33 5 5 5 5 5 5 4 0 0 0 0 0 0 0 0 0 0 0 0 0 0 0 0 0 0 0 0 0 0 0 0 0 0 0 0
81 63 100 100 88 75 6 100 100 100 100 86 64 100 95 19 14 9 5 5 3 0 0 0 0 0 0 0 0 0 0 0 0 0 0 0 0 0 0 0 0 0 0 0 0 0 0 0 0
100 100 100 100 57 100 74 48 100 100 97 100 65 55 100 100 42 74 7 4 4 0 0 0 0 0 0 0 0 0 0 0 0 0 0 0 0 0 0 0 0 0 0 0 0 0 0 0 0
100 100 100 100 16 100 46 1 26 99 83 100 100 100 99 99 100 100 88 89 5 5 0 0 0 0 0 0 0 0 0 0 0 0 0 0 0 0 0 0 0 0 0 0 0 0 0 0 2

GFSSGP_prec_cloud_222.txt.gz
Cloud_Cover
0 0 0 0 1 5 22 1 9 13 0 0 0 68 100 100 100 100 100 100 100 73 5 5 65 98 76 5 9 85 100 100 100 97 24 1 4 8 14 5 43 98 100 52 5 6 13 32 65
0 0 0 0 0 0 0 5 3 18 0 0 0 94 100 100 100 100 100 100 100 98 75 34 13 33 88 100 98 55 89 100 100 100 100 15 2 22 5 6 5 5 5 15 4 5 5 8 59
0 0 0 0 0 0 12 16 0 0 0 0 0 0 71 100 100 100 100 100 100 88 70 100 38 98 99 56 97 89 72 98 70 100 60 74 5 5 1 5 5 5 5 1 2 0 5 5 49
0 0 0 0 0 0 0 0 0 0 0 0 2 98 34 100 100 100 100 100 74 100 98 36 97 97 52 14 74 95 99 37 97 72 18 5 31 5 0 4 20 35 72 3 0 0 0 5 5
0 0 0 0 0 0 0 0 0 0 0 0 1 44 76 100 100 98 9 13 41 76 87 2 26 83 21 5 18 16 34 90 68 100 31 8 79 5 1 2 5 5 8 5 4 5 5 5 47
0 0 0 0 0 0 0 0 0 0 0 0 2 4 18 99 93 99 31 25 90 98 99 8 0 4 89 57 5 5 5 96 98 99 76 63 6 3 5 5 4 4 5 5 0 0 3 5 5
0 0 0 0 0 0 0 0 0 0 0 3 30 76 2 100 100 1 2 51 0 0 0 83 42 3 3 70 99 32 24 15 82 31 8 7 39 31 5 5 4 3 2 3 0 2 5 5 5
0 0 0 0 0 0 0 0 0 0 0 0 1 5 0 24 97 1 19 4 27 0 0 0 0 5 5 1 48 49 100 7 5 43 100 87 6 5 6 96 48 5 5 5 5 5 5 5 5
0 0 0 0 0 0 0 0 0 0 0 0 0 0 0 0 0 0 0 0 0 0 0 0 0 0 0 2 6 31 14 5 84 35 5 54 88 5 0 0 1 4 5 5 5 5 3 5 5
0 0 0 0 0 0 0 0 0 0 0 0 0 0 0 0 0 0 85 39 96 76 43 67 91 3 2 0 0 2 41 12 3 12 92 6 32 17 5 4 2 0 2 5 5 5 7 5 4
0 0 0 0 0 0 0 0 0 0 0 0 0 0 0 0 0 0 0 5 18 82 31 77 1 50 37 10 0 0 0 0 0 3 1 0 4 13 6 34 22 7 5 1 5 5 6 5 6
0 0 0 0 0 0 0 0 0 0 0 0 0 0 0 0 0 0 0 0 1 94 12 16 96 94 35 94 100 64 0 0 0 0 0 0 0 0 3 3 7 72 15 5 5 5 5 6 29
0 0 0 0 0 0 0 0 0 0 0 0 0 0 0 0 0 0 0 0 0 0 0 0 0 49 100 100 48 87 48 26 66 6 77 100 42 0 0 82 40 96 99 46 21 5 7 64 100
0 0 0 0 0 0 0 0 0 0 0 0 0 0 0 0 0 0 0 0 0 0 0 0 0 0 1 0 0 0 44 38 36 73 100 100 100 20 0 2 36 28 78 50 14 5 5 5 34
0 0 0 0 0 0 0 0 0 0 0 0 0 0 0 0 0 0 0 0 0 0 0 0 0 0 0 0 0 0 1 1 0 4 100 100 100 100 23 53 5 97 10 78 56 3 5 5 57
0 0 0 0 0 0 0 0 0 0 0 0 0 0 0 0 0 0 0 0 0 0 0 0 0 0 0 0 0 0 0 0 35 0 0 53 100 100 100 100 100 73 34 82 12 70 1 4 42
0 0 0 0 0 0 0 0 0 0 0 0 0 0 0 0 0 0 0 0 0 0 0 0 0 0 0 0 0 0 0 0 0 17 5 60 63 100 100 100 71 74 1 98 98 91 55 87 59
0 4 3 0 0 0 0 0 0 0 0 0 0 0 0 0 0 0 0 0 0 0 0 0 0 0 0 0 0 0 0 0 44 0 0 29 6 100 100 100 97 100 6 18 30 72 28 7 29
0 0 0 0 2 0 0 0 0 0 0 0 0 0 0 0 0 0 0 0 0 0 0 0 0 0 0 0 0 0 0 0 0 0 20 100 100 5 100 100 100 100 18 7 44 14 14 99 47
0 0 0 0 0 0 0 0 0 0 0 0 0 0 0 0 0 0 0 0 0 0 0 0 0 0 0 0 0 0 13 4 20 0 0 27 64 0 0 4 1 45 20 0 4 4 4 3 25
0 0 0 0 0 0 0 0 0 0 0 0 0 0 0 0 0 0 0 0 0 0 0 0 0 0 0 0 0 0 0 0 28 3 0 0 0 0 0 0 0 0 0 0 0 0 0 0 0
0 0 0 2 0 0 0 0 0 0 0 1 0 0 0 0 0 0 0 0 0 0 0 0 0 0 0 0 0 0 0 0 0 0 2 0 0 0 0 0 0 0 0 0 0 0 0 0 0
3 5 3 0 0 0 0 0 0 0 0 0 0 0 0 0 0 0 0 0 0 0 0 0 0 0 0 0 0 0 0 0 0 47 45 0 0 0 0 0 0 0 0 0 0 0 0 0 0
5 0 5 5 5 2 0 5 0 6 13 15 39 7 1 37 0 0 0 0 0 0 0 0 0 0 0 0 0 0 0 0 0 0 2 0 0 0 0 0 0 0 0 0 0 0 0 0 0
58 29 9 28 98 3 19 100 6 26 90 65 5 1 4 9 1 0 0 0 0 0 0 0 0 0 0 0 0 0 0 0 0 0 0 0 0 0 0 0 0 0 0 0 0 0 0 0 0
100 100 100 100 10 49 4 36 4 37 100 92 18 18 1 4 84 5 0 0 0 0 0 0 0 0 0 0 0 0 0 0 0 0 0 0 0 0 0 0 0 0 0 0 0 0 0 0 0
74 90 100 77 56 95 0 0 0 0 98 48 100 100 32 7 2 23 15 5 5 5 0 0 0 0 0 0 0 0 0 0 0 0 0 0 0 0 0 0 0 0 0 0 0 0 0 0 0
14 31 37 67 19 1 0 4 1 38 88 100 72 100 100 100 31 45 9 34 68 58 38 5 5 5 5 5 5 0 0 1 0 0 0 0 0 0 0 0 0 0 0 0 0 0 0 0 0
5 5 100 100 75 79 25 3 0 70 6 40 80 94 100 100 100 65 25 41 5 5 50 8 5 5 5 5 5 2 1 2 0 0 0 0 0 0 0 0 0 0 0 0 0 0 0 0 0
5 5 6 100 100 48 83 69 10 88 100 100 100 53 43 100 100 96 36 5 0 2 5 4 5 50 8 5 5 4 0 0 0 0 0 0 0 0 0 0 0 0 0 0 0 0 0 0 0